Latest Coastal Weather Observations for Wilsons Promontory

IDV60701

Issued at 10:35 am EST Saturday 2 August 2014 (issued every 10 minutes, with the page automatically refreshed every 10 minutes)

About coastal observations | Map of coastal stations | Coastal observations for VIC | Marine services | Other Formats
Station Details ID: 085096 Name: WILSONS PROMONTORY LIGHTHOUSE Lat: -39.13 Lon: 146.42 Height: 95.0 m
Data from the previous 72 hours. | See also: Recent months at Wilsons Promontory
Date/Time
EST
Temp

°C
Wind Pressure Rain
since 9am
mm
Weather Cloud Vis
km
Sea
Height
m
Swell
Dir
 
Speed
knots
Gust
knots
hPa Trend Height
m
Period
s
Dir
02/10:30am 9.7 SW 22 29 1027.4 - 0.0 - - - - - - -
02/10:00am 9.5 SW 18 25 1027.3 - 0.0 - - - - - - -
02/09:41am 9.3 SSW 15 26 1026.8 - 0.0 - - - - - - -
02/09:30am 9.2 SW 16 23 1026.6 - 0.0 - - - - - - -
02/09:07am 9.2 SSW 15 26 1026.2 - 0.0 - - - - - - -
02/09:00am 9.1 SSW 13 25 1026.5 - 18.0 - - - - - - -
02/08:32am 9.0 SW 17 29 1025.7 - 18.0 - - - - - - -
02/08:30am 9.1 SW 16 25 1025.6 - 18.0 - - - - - - -
02/08:00am 8.8 WSW 15 29 1025.0 - 18.0 - - - - - - -
02/07:30am 8.9 SW 16 34 1024.3 - 18.0 - - - - - - -
02/07:00am 8.6 SW 19 29 1023.7 - 18.0 - - - - - - -
02/06:38am 8.6 WSW 17 37 1023.0 - 18.0 - - - - - - -
02/06:37am 8.7 WSW 14 37 1023.2 - 18.0 - - - - - - -
02/06:30am 8.6 SW 25 37 1023.0 - 18.0 - - - - - - -
02/06:20am 8.7 SW 15 27 1022.9 - 18.0 - - - - - - -
02/06:15am 8.7 W 12 36 1022.6 - 18.0 - - - - - - -
02/06:08am 8.7 SW 25 36 1022.5 - 18.0 - - - - - - -
02/06:07am 8.8 SSE 20 36 1022.4 - 18.0 - - - - - - -
02/06:00am 8.8 SSW 14 23 1022.5 - 18.0 - - - - - - -
02/05:30am 8.8 SSW 19 32 1021.7 - 18.0 - - - - - - -
02/05:00am 8.8 SSW 19 43 1021.4 - 18.0 - - - - - - -
02/04:54am 8.8 SW 33 43 1021.2 - 18.0 - - - - - - -
02/04:52am 8.7 SW 34 43 1021.0 - 18.0 - - - - - - -
02/04:30am 8.7 SW 24 39 1021.0 - 18.0 - - - - - - -
02/04:15am 8.8 SW 30 40 1020.5 - 18.0 - - - - - - -
02/04:14am 8.7 SW 31 40 1020.4 - 18.0 - - - - - - -
02/04:00am 8.8 SW 20 39 1020.2 - 18.0 - - - - - - -
02/03:55am 8.8 SW 20 37 1020.2 - 18.0 - - - - - - -
02/03:49am 8.7 S 18 42 1020.1 - 18.0 - - - - - - -
02/03:48am 8.7 SSW 21 42 1019.9 - 18.0 - - - - - - -
02/03:46am 8.7 NNE 11 42 1020.0 - 18.0 - - - - - - -
02/03:37am 8.9 SSW 20 45 1019.9 - 18.0 - - - - - - -
02/03:33am 8.8 SW 35 45 1019.6 - 18.0 - - - - - - -
02/03:30am 8.9 SW 19 37 1019.8 - 18.0 - - - - - - -
02/03:23am 8.9 SW 18 37 1019.6 - 18.0 - - - - - - -
02/03:22am 8.9 WSW 16 33 1019.6 - 18.0 - - - - - - -
02/03:00am 8.9 SW 31 44 1019.1 - 18.0 - - - - - - -
02/02:48am 9.0 SSW 29 45 1019.2 - 18.0 - - - - - - -
02/02:46am 8.9 SW 40 45 1018.9 - 18.0 - - - - - - -
02/02:32am 9.1 SSW 22 46 1019.1 - 18.0 - - - - - - -
02/02:30am 9.1 ESE 16 46 1019.2 - 18.0 - - - - - - -
02/02:27am 8.9 S 19 46 1018.7 - 18.0 - - - - - - -
02/02:00am 9.0 SW 24 39 1018.2 - 18.0 - - - - - - -
02/01:30am 9.1 SW 27 50 1017.4 - 18.0 - - - - - - -
02/01:17am 9.0 SW 21 44 1017.4 - 18.0 - - - - - - -
02/01:05am 9.1 SSW 18 44 1016.9 - 18.0 - - - - - - -
02/01:00am 9.0 SW 30 49 1016.8 - 18.0 - - - - - - -
02/12:40am 8.8 SW 25 47 1017.0 - 18.0 - - - - - - -
02/12:30am 8.8 SW 39 50 1016.7 - 18.0 - - - - - - -
02/12:00am 8.8 SSW 34 49 1016.4 - 18.0 - - - - - - -
 
Date/Time
EST
Temp

°C
Wind Pressure Rain
since 9am
mm
Weather Cloud Vis
km
Sea
Height
m
Swell
Dir
 
Speed
knots
Gust
knots
hPa Trend Height
m
Period
s
Dir
01/11:56pm 8.8 SW 38 49 1015.9 - 18.0 - - - - - - -
01/11:55pm 8.9 SW 37 48 1016.3 - 18.0 - - - - - - -
01/11:52pm 8.9 SSW 16 48 1015.8 - 18.0 - - - - - - -
01/11:30pm 8.9 SW 31 44 1015.4 - 18.0 - - - - - - -
01/11:21pm 9.0 SW 27 47 1015.5 - 18.0 - - - - - - -
01/11:15pm 8.9 SW 41 47 1015.3 - 18.0 - - - - - - -
01/11:00pm 8.9 SW 29 45 1014.9 - 18.0 - - - - - - -
01/10:30pm 9.1 SW 32 47 1014.7 - 18.0 - - - - - - -
01/10:04pm 9.2 SW 34 46 1014.3 - 18.0 - - - - - - -
01/10:02pm 9.2 SW 38 46 1013.9 - 18.0 - - - - - - -
01/10:00pm 9.2 SSW 19 38 1013.9 - 18.0 - - - - - - -
01/09:58pm 9.3 S 20 43 1014.1 - 18.0 - - - - - - -
01/09:52pm 9.1 SW 32 43 1014.0 - 18.0 - - - - - - -
01/09:50pm 9.3 SW 37 43 1014.0 - 18.0 - - - - - - -
01/09:30pm 9.2 SSW 22 39 1013.3 - 18.0 - - - - - - -
01/09:24pm 9.3 SSW 18 41 1012.9 - 18.0 - - - - - - -
01/09:17pm 9.3 SW 31 44 1012.7 - 18.0 - - - - - - -
01/09:15pm 9.3 SSW 34 44 1012.6 - 18.0 - - - - - - -
01/09:07pm 9.3 SW 22 49 1012.2 - 18.0 - - - - - - -
01/09:04pm 9.4 SW 38 49 1012.2 - 18.0 - - - - - - -
01/09:00pm 9.3 SW 39 48 1012.2 - 18.0 - - - - - - -
01/08:58pm 9.4 SW 38 48 1012.0 - 18.0 - - - - - - -
01/08:50pm 9.6 SW 22 49 1011.7 - 18.0 - - - - - - -
01/08:46pm 9.4 SW 39 53 1011.4 - 18.0 - - - - - - -
01/08:44pm 9.5 SW 23 53 1011.4 - 18.0 - - - - - - -
01/08:30pm 9.7 SW 34 52 1010.7 - 18.0 - - - - - - -
01/08:02pm 9.7 SSW 32 49 1010.2 - 18.0 - - - - - - -
01/08:00pm 9.6 W 18 49 1010.1 - 18.0 - - - - - - -
01/07:59pm 9.6 W 20 49 1009.9 - 18.0 - - - - - - -
01/07:57pm 9.6 SW 37 49 1009.7 - 18.0 - - - - - - -
01/07:55pm 9.6 SSW 24 47 1010.2 - 18.0 - - - - - - -
01/07:54pm 9.6 SSW 24 47 1010.2 - 18.0 - - - - - - -
01/07:30pm 9.4 SW 36 52 1009.4 - 18.0 - - - - - - -
01/07:29pm 9.5 SW 38 52 1009.5 - 18.0 - - - - - - -
01/07:28pm 9.4 SW 44 52 1009.3 - 18.0 - - - - - - -
01/07:25pm 9.6 SSW 22 46 1009.6 - 18.0 - - - - - - -
01/07:24pm 9.7 S 20 46 1009.5 - 18.0 - - - - - - -
01/07:21pm 9.4 SW 35 46 1009.1 - 18.0 - - - - - - -
01/07:20pm 9.4 SW 37 49 1009.3 - 18.0 - - - - - - -
01/07:13pm 9.4 SSW 23 49 1009.0 - 18.0 - - - - - - -
01/07:00pm 9.2 SW 39 49 1008.7 - 18.0 - - - - - - -
01/06:48pm 9.3 SW 33 53 1008.1 - 18.0 - - - - - - -
01/06:47pm 9.4 SW 29 53 1008.3 - 18.0 - - - - - - -
01/06:36pm 9.3 SW 47 57 1007.3 - 18.0 - - - - - - -
01/06:30pm 9.2 SW 49 55 1007.1 - 18.0 - - - - - - -
01/06:16pm 9.3 SW 44 55 1006.9 - 18.0 - - - - - - -
01/06:13pm 9.3 SW 47 55 1006.6 - 18.0 - - - - - - -
01/06:11pm 9.4 SW 33 51 1007.0 - 18.0 - - - - - - -
01/06:00pm 9.2 SW 45 55 1006.1 - 18.0 - - - - - - -
01/05:52pm 9.1 SW 48 61 1005.6 - 18.0 - - - - - - -
01/05:51pm 9.1 SW 50 61 1005.8 - 18.0 - - - - - - -
01/05:42pm 9.1 SW 31 59 1006.0 - 18.0 - - - - - - -
01/05:30pm 8.7 SW 45 59 1005.3 - 18.0 - - - - - - -
01/05:16pm 8.1 SW 46 66 1004.6 - 18.0 - - - - - - -
01/05:14pm 8.0 SW 42 66 1005.1 - 18.0 - - - - - - -
01/05:12pm 8.2 S 20 66 1005.1 - 18.0 - - - - - - -
01/05:11pm 7.8 SW 23 66 1005.0 - 18.0 - - - - - - -
01/05:04pm 8.0 SW 41 65 1005.0 - 18.0 - - - - - - -
01/05:03pm 7.7 SW 39 65 1005.3 - 18.0 - - - - - - -
01/05:00pm 7.4 SW 56 66 1004.0 - 18.0 - - - - - - -
01/04:57pm 7.1 SW 56 66 1003.7 - 18.0 - - - - - - -
01/04:52pm 7.1 SW 55 64 1003.3 - 18.0 - - - - - - -
01/04:30pm 7.1 W 31 57 1004.7 - 16.0 - - - - - - -
01/04:16pm 8.5 WSW 47 59 1002.8 - 16.0 - - - - - - -
01/04:15pm 8.1 W 31 59 1002.7 - 16.0 - - - - - - -
01/04:11pm 8.7 W 26 43 1003.8 - 16.0 - - - - - - -
01/04:00pm 8.1 W 20 30 1004.4 - 16.0 - - - - - - -
01/03:55pm 7.7 W 20 36 1004.4 - 16.0 - - - - - - -
01/03:51pm 7.8 W 21 43 1004.3 - 16.0 - - - - - - -
01/03:37pm 6.9 W 34 62 1003.7 - 15.8 - - - - - - -
01/03:30pm 7.4 WSW 44 62 1002.0 - 15.8 - - - - - - -
01/03:17pm 8.2 WSW 57 67 1000.5 - 15.8 - - - - - - -
01/03:14pm 8.1 WSW 61 67 999.8 - 15.8 - - - - - - -
01/03:12pm 9.0 SW 47 59 1000.9 - 15.8 - - - - - - -
01/03:11pm 8.8 SW 44 49 1001.4 - 15.8 - - - - - - -
01/03:00pm 8.1 SW 30 41 1002.0 - 15.8 - - - - - - -
01/02:46pm 7.2 SW 29 42 1001.5 - 15.6 - - - - - - -
01/02:43pm 7.4 WSW 36 41 1001.9 - 15.6 - - - - - - -
01/02:41pm 8.6 W 19 39 1002.1 - 15.6 - - - - - - -
01/02:35pm 8.5 W 17 28 1002.4 - 15.6 - - - - - - -
01/02:30pm 8.4 W 16 24 1002.5 - 15.6 - - - - - - -
01/02:00pm 7.5 W 20 31 1001.7 - 15.6 - - - - - - -
01/01:35pm 6.8 W 22 33 1001.2 - 15.6 - - - - - - -
01/01:30pm 6.7 W 21 29 1001.1 - 15.6 - - - - - - -
01/01:20pm 6.1 W 20 30 1000.9 - 15.6 - - - - - - -
01/01:19pm 6.2 W 20 29 1000.9 - 15.6 - - - - - - -
01/01:00pm 4.7 NW 18 29 1001.2 - 15.6 - - - - - - -
01/12:55pm 4.5 NW 19 29 1001.1 - 15.4 - - - - - - -
01/12:52pm 4.4 NW 20 27 1001.1 - 15.4 - - - - - - -
01/12:47pm 4.5 W 15 29 1001.7 - 14.8 - - - - - - -
01/12:31pm 3.7 WNW 20 33 1001.7 - 12.0 - - - - - - -
01/12:30pm 3.8 WNW 20 29 1001.8 - 11.6 - - - - - - -
01/12:29pm 3.9 WNW 22 29 1001.8 - 11.4 - - - - - - -
01/12:00pm 5.4 W 24 34 1001.0 - 5.8 - - - - - - -
01/11:46am 4.6 W 21 37 1000.7 - 5.2 - - - - - - -
01/11:30am 5.2 W 33 54 999.4 - 1.6 - - - - - - -
01/11:26am 6.9 W 36 54 998.8 - 1.0 - - - - - - -
01/11:01am 7.4 W 15 42 998.9 - 0.2 - - - - - - -
01/11:00am 7.4 W 14 42 998.8 - 0.2 - - - - - - -
01/10:59am 7.4 W 14 42 998.8 - 0.2 - - - - - - -
01/10:47am 7.4 WNW 15 30 999.1 - 0.2 - - - - - - -
01/10:30am 7.3 WNW 13 46 999.4 - 0.2 - - - - - - -
01/10:23am 7.3 WNW 19 46 999.2 - 0.2 - - - - - - -
01/10:22am 7.3 WNW 15 35 999.4 - 0.0 - - - - - - -
01/10:21am 7.5 W 14 35 999.3 - 0.0 - - - - - - -
01/10:16am 7.6 NW 21 35 999.1 - 0.0 - - - - - - -
01/10:09am 7.9 N 15 41 999.2 - 0.0 - - - - - - -
01/10:06am 7.8 WNW 10 41 999.2 - 0.0 - - - - - - -
01/10:00am 7.5 NW 23 41 998.8 - 0.0 - - - - - - -
01/09:59am 7.5 NW 20 41 998.7 - 0.0 - - - - - - -
01/09:47am 7.7 W 26 41 998.6 - 0.0 - - - - - - -
01/09:30am 7.5 WNW 20 47 998.9 - 0.0 - - - - - - -
01/09:23am 7.3 WNW 17 47 998.6 - 0.0 - - - - - - -
01/09:01am 7.0 W 18 35 998.3 - 0.0 - - - - - - -
01/09:00am 6.9 NNW 14 35 998.5 - 16.4 - - - - - - -
01/08:41am 6.7 NNW 15 33 998.4 - 16.4 - - - - - - -
01/08:30am 6.9 N 12 29 998.6 - 16.0 - - - - - - -
01/08:05am 7.0 NNW 15 32 998.4 - 15.8 - - - - - - -
01/08:00am 6.9 NNW 13 27 998.4 - 15.8 - - - - - - -
01/07:32am 6.8 NNW 15 34 997.5 - 15.8 - - - - - - -
01/07:30am 6.8 NNW 14 31 997.5 - 15.8 - - - - - - -
01/07:09am 6.8 N 24 35 997.4 - 15.8 - - - - - - -
01/07:00am 6.8 NNW 11 29 997.8 - 15.8 - - - - - - -
01/06:30am 6.6 NNW 17 35 997.5 - 15.8 - - - - - - -
01/06:00am 6.6 NNW 15 30 997.3 - 15.8 - - - - - - -
01/05:30am 7.0 NNW 15 28 996.9 - 15.8 - - - - - - -
01/05:00am 7.2 NNW 16 38 996.9 - 15.8 - - - - - - -
01/04:55am 7.2 NNW 19 38 996.7 - 15.8 - - - - - - -
01/04:30am 7.0 NNW 15 27 997.0 - 15.8 - - - - - - -
01/04:01am 7.1 NNW 15 37 996.9 - 15.8 - - - - - - -
01/04:00am 7.2 NNW 14 37 997.0 - 15.8 - - - - - - -
01/03:54am 7.2 NNW 15 37 996.7 - 15.8 - - - - - - -
01/03:43am 7.3 N 15 27 996.7 - 15.8 - - - - - - -
01/03:30am 7.7 NNW 7 24 997.3 - 15.8 - - - - - - -
01/03:08am 8.0 W 17 35 997.4 - 15.8 - - - - - - -
01/03:00am 7.8 WNW 8 24 997.7 - 15.8 - - - - - - -
01/02:37am 7.8 W 18 45 997.2 - 15.8 - - - - - - -
01/02:32am 7.6 WNW 16 26 997.4 - 15.8 - - - - - - -
01/02:30am 7.5 NW 7 25 997.6 - 15.8 - - - - - - -
01/02:00am 5.8 W 13 25 997.6 - 15.8 - - - - - - -
01/01:33am 6.6 WSW 15 29 997.4 - 14.6 - - - - - - -
01/01:30am 6.3 WSW 11 33 997.8 - 14.6 - - - - - - -
01/01:28am 6.4 W 12 38 997.7 - 14.6 - - - - - - -
01/01:16am 7.8 WSW 27 38 997.1 - 14.6 - - - - - - -
01/01:00am 8.2 WNW 19 46 996.8 - 14.4 - - - - - - -
01/12:59am 8.3 WNW 19 46 996.7 - 14.4 - - - - - - -
01/12:50am 8.2 W 15 31 996.8 - 14.4 - - - - - - -
01/12:30am 8.0 W 7 35 996.8 - 14.4 - - - - - - -
01/12:21am 8.0 WNW 16 35 996.7 - 14.4 - - - - - - -
01/12:18am 8.0 N 6 34 997.0 - 14.4 - - - - - - -
01/12:04am 8.2 WNW 20 48 996.6 - 14.4 - - - - - - -
01/12:00am 8.2 W 20 37 996.7 - 14.4 - - - - - - -
 
Date/Time
EST
Temp

°C
Wind Pressure Rain
since 9am
mm
Weather Cloud Vis
km
Sea
Height
m
Swell
Dir
 
Speed
knots
Gust
knots
hPa Trend Height
m
Period
s
Dir
31/11:30pm 8.0 W 20 37 996.9 - 14.4 - - - - - - -
31/11:12pm 7.7 W 19 39 996.8 - 14.4 - - - - - - -
31/11:00pm 7.5 W 32 51 996.4 - 14.4 - - - - - - -
31/10:48pm 7.1 W 40 52 995.9 - 14.4 - - - - - - -
31/10:46pm 6.8 W 29 52 996.5 - 14.4 - - - - - - -
31/10:32pm 7.1 W 41 55 995.9 - 13.0 - - - - - - -
31/10:31pm 8.2 W 26 55 995.1 - 12.8 - - - - - - -
31/10:30pm 9.0 W 25 44 995.8 - 12.8 - - - - - - -
31/10:00pm 9.1 W 21 42 996.2 - 12.6 - - - - - - -
31/09:53pm 9.2 W 21 38 995.8 - 12.6 - - - - - - -
31/09:30pm 8.5 WNW 15 30 996.0 - 12.6 - - - - - - -
31/09:00pm 8.0 NW 18 37 996.0 - 12.6 - - - - - - -
31/08:30pm 7.4 NW 15 35 995.9 - 12.6 - - - - - - -
31/08:00pm 7.4 NNW 16 38 995.7 - 12.4 - - - - - - -
31/07:30pm 8.5 NW 16 36 995.2 - 11.6 - - - - - - -
31/07:12pm 8.9 WNW 17 35 995.4 - 11.4 - - - - - - -
31/07:10pm 8.9 W 20 35 995.0 - 11.4 - - - - - - -
31/07:07pm 9.0 NW 20 41 995.1 - 11.4 - - - - - - -
31/07:05pm 8.9 W 12 46 995.3 - 11.4 - - - - - - -
31/07:00pm 8.9 WNW 31 46 994.9 - 11.4 - - - - - - -
31/06:58pm 8.8 WNW 34 46 994.9 - 11.4 - - - - - - -
31/06:50pm 8.7 W 31 55 995.0 - 11.4 - - - - - - -
31/06:45pm 8.7 W 43 55 993.9 - 11.2 - - - - - - -
31/06:30pm 8.5 W 31 48 995.1 - 11.0 - - - - - - -
31/06:03pm 7.7 W 29 65 994.8 - 10.8 - - - - - - -
31/06:00pm 7.7 W 44 65 994.1 - 10.8 - - - - - - -
31/05:51pm 7.2 W 40 73 994.1 - 10.6 - - - - - - -
31/05:41pm 7.2 W 51 70 993.6 - 10.2 - - - - - - -
31/05:30pm 8.0 W 36 61 994.4 - 9.6 - - - - - - -
31/05:00pm 8.1 W 37 55 993.6 - 8.6 - - - - - - -
31/04:48pm 8.5 W 42 55 993.3 - 8.0 - - - - - - -
31/04:40pm 8.8 W 30 62 993.5 - 7.6 - - - - - - -
31/04:38pm 8.7 W 31 62 993.3 - 7.6 - - - - - - -
31/04:30pm 8.8 W 45 60 992.8 - 7.2 - - - - - - -
31/04:29pm 9.0 W 47 60 992.7 - 7.0 - - - - - - -
31/04:00pm 8.6 W 36 56 992.5 - 6.8 - - - - - - -
31/03:30pm 9.1 W 40 58 992.0 - 5.6 - - - - - - -
31/03:17pm 9.2 W 44 61 990.8 - 5.2 - - - - - - -
31/03:00pm 10.1 W 33 54 990.9 - 3.8 - - - - - - -
31/02:54pm 9.9 W 32 52 991.1 - 3.4 - - - - - - -
31/02:30pm 11.0 W 42 58 989.6 - 0.4 - - - - - - -
31/02:27pm 11.9 W 46 58 989.1 - 0.0 - - - - - - -
31/02:25pm 14.0 WSW 28 57 988.9 - 0.0 - - - - - - -
31/02:00pm 16.3 N 15 46 989.5 - 0.0 - - - - - - -
31/01:33pm 16.5 N 18 37 989.7 - 0.0 - - - - - - -
31/01:30pm 16.5 NNW 20 38 990.0 - 0.0 - - - - - - -
31/01:09pm 17.0 NNW 24 51 989.8 - 0.0 - - - - - - -
31/01:07pm 17.1 N 18 51 990.2 - 0.0 - - - - - - -
31/01:00pm 17.0 NNW 23 49 989.9 - 0.0 - - - - - - -
31/12:30pm 17.0 NNW 26 53 990.7 - 0.0 - - - - - - -
31/12:00pm 16.9 N 25 53 991.8 - 0.0 - - - - - - -
31/11:50am 16.9 N 23 56 992.1 - 0.0 - - - - - - -
31/11:47am 16.6 N 38 56 991.6 - 0.0 - - - - - - -
31/11:30am 16.8 NNW 25 52 992.8 - 0.0 - - - - - - -
31/11:29am 16.7 NNW 24 52 992.5 - 0.0 - - - - - - -
31/11:00am 16.9 NNW 21 40 994.1 - 0.0 - - - - - - -
31/10:30am 16.7 N 17 37 994.8 - 0.0 - - - - - - -
31/10:00am 16.6 NNW 20 45 995.2 - 0.0 - - - - - - -
31/09:30am 16.3 NNW 21 45 995.8 - 0.0 - - - - - - -
31/09:00am 15.7 NNW 21 42 996.1 - 6.0 - - - - - - -
31/08:30am 15.3 NNW 19 40 997.1 - 6.0 - - - - - - -
31/08:00am 14.9 NNW 21 40 997.6 - 6.0 - - - - - - -
31/07:30am 15.0 NNW 22 38 997.8 - 6.0 - - - - - - -
31/07:00am 15.0 NNW 27 61 997.9 - 6.0 - - - - - - -
31/06:56am 15.0 NNW 25 61 997.2 - 6.0 - - - - - - -
31/06:30am 14.7 NNW 25 50 998.1 - 6.0 - - - - - - -
31/06:17am 14.8 NNW 23 48 998.0 - 6.0 - - - - - - -
31/06:00am 14.6 N 18 36 998.1 - 6.0 - - - - - - -
31/05:30am 14.8 NNW 19 46 998.9 - 6.0 - - - - - - -
31/05:06am 14.8 NNW 21 47 998.8 - 6.0 - - - - - - -
31/05:00am 14.8 NNW 17 35 999.4 - 6.0 - - - - - - -
31/04:39am 14.8 NNW 22 49 999.1 - 6.0 - - - - - - -
31/04:30am 14.7 NNW 18 38 999.7 - 6.0 - - - - - - -
31/04:00am 14.7 NNW 20 45 1000.1 - 6.0 - - - - - - -
31/03:30am 14.6 NNW 17 42 1000.8 - 6.0 - - - - - - -
31/03:00am 14.8 NNW 17 50 1001.1 - 6.0 - - - - - - -
31/02:41am 14.8 NNW 17 40 1001.1 - 6.0 - - - - - - -
31/02:30am 14.9 NNW 15 27 1001.4 - 6.0 - - - - - - -
31/02:00am 14.7 NNW 17 37 1002.0 - 6.0 - - - - - - -
31/01:30am 14.6 NNW 18 36 1002.2 - 6.0 - - - - - - -
31/01:00am 14.9 N 17 38 1002.9 - 6.0 - - - - - - -
31/12:45am 14.8 NNW 15 34 1002.8 - 6.0 - - - - - - -
31/12:30am 14.4 NNW 8 23 1003.2 - 6.0 - - - - - - -
31/12:00am 14.5 NW 8 17 1004.0 - 6.0 - - - - - - -
 
Date/Time
EST
Temp

°C
Wind Pressure Rain
since 9am
mm
Weather Cloud Vis
km
Sea
Height
m
Swell
Dir
 
Speed
knots
Gust
knots
hPa Trend Height
m
Period
s
Dir
30/11:30pm 14.9 NNW 12 33 1003.9 - 6.0 - - - - - - -
30/11:21pm 14.8 NNW 15 28 1003.7 - 6.0 - - - - - - -
30/11:00pm 14.7 NW 8 30 1004.4 - 6.0 - - - - - - -
30/10:43pm 14.6 W 18 29 1004.3 - 6.0 - - - - - - -
30/10:30pm 14.8 NNE 13 43 1004.3 - 6.0 - - - - - - -
30/10:08pm 14.7 WNW 20 46 1004.0 - 6.0 - - - - - - -
30/10:00pm 14.6 WNW 15 32 1004.7 - 6.0 - - - - - - -
30/09:46pm 14.8 NW 18 32 1004.9 - 6.0 - - - - - - -
30/09:30pm 14.5 N 8 21 1004.8 - 6.0 - - - - - - -
30/09:00pm 14.1 NNW 11 25 1005.2 - 6.0 - - - - - - -
30/08:50pm 14.2 NW 18 33 1004.8 - 6.0 - - - - - - -
30/08:30pm 14.2 W 13 30 1005.2 - 6.0 - - - - - - -
30/08:00pm 13.7 W 18 29 1005.3 - 6.0 - - - - - - -
30/07:33pm 13.5 WNW 19 37 1005.6 - 6.0 - - - - - - -
30/07:30pm 13.6 W 21 37 1005.3 - 6.0 - - - - - - -
30/07:00pm 13.3 W 23 39 1005.3 - 6.0 - - - - - - -
30/06:58pm 13.2 W 22 39 1005.5 - 6.0 - - - - - - -
30/06:55pm 13.3 W 34 39 1004.8 - 5.6 - - - - - - -
30/06:40pm 13.8 WSW 19 33 1005.2 - 4.8 - - - - - - -
30/06:30pm 13.5 WNW 8 16 1005.5 - 4.6 - - - - - - -
30/06:00pm 13.9 W 16 34 1005.6 - 4.6 - - - - - - -
30/05:30pm 13.8 W 20 38 1005.5 - 4.4 - - - - - - -
30/05:00pm 13.3 W 19 41 1005.5 - 4.4 - - - - - - -
30/04:30pm 13.9 W 20 38 1005.3 - 1.0 - - - - - - -
30/04:00pm 14.8 WNW 15 29 1005.2 - 0.0 - - - - - - -
30/03:55pm 14.8 WNW 18 38 1005.1 - 0.0 - - - - - - -
30/03:53pm 14.8 W 12 38 1005.5 - 0.0 - - - - - - -
30/03:30pm 14.6 WNW 26 47 1004.8 - 0.0 - - - - - - -
30/03:00pm 14.8 W 27 47 1004.9 - 0.0 - - - - - - -
30/02:30pm 14.7 W 30 53 1004.4 - 0.0 - - - - - - -
30/02:00pm 14.8 WNW 30 51 1004.8 - 0.0 - - - - - - -
30/01:30pm 15.1 W 31 52 1004.6 - 0.0 - - - - - - -
30/01:00pm 15.0 WNW 34 54 1004.7 - 0.0 - - - - - - -
30/12:30pm 14.7 WNW 36 61 1005.2 - 0.0 - - - - - - -
30/12:00pm 14.4 WNW 34 56 1005.5 - 0.0 - - - - - - -
30/11:38am 14.1 WNW 36 63 1005.1 - 0.0 - - - - - - -
30/11:30am 14.0 W 35 52 1006.3 - 0.0 - - - - - - -
30/11:20am 13.9 WNW 28 58 1006.6 - 0.0 - - - - - - -
30/11:00am 13.8 W 26 46 1007.2 - 0.0 - - - - - - -

Other Formats:

Comma delimited format used in spreadsheet applications
http://www.bom.gov.au/fwo/IDV60701/IDV60701.94893.axf

JavaScript Object Notation format (JSON) in row-major order
http://www.bom.gov.au/fwo/IDV60701/IDV60701.94893.json